owner,sensor,date,latitude,longitude,vertical_datum,mass_concentration_of_oxygen_in_sea_water,qcFlag 
SCCF RECON,ioos:station:SCCF:18:1,2015-12-17T21:00:00Z,26.6955,-81.8138,2.01,5.87,1111122 
SCCF RECON,ioos:station:SCCF:18:1,2015-12-17T22:00:00Z,26.6955,-81.8138,2.09,6.03,1111122 
SCCF RECON,ioos:station:SCCF:18:1,2015-12-17T23:00:00Z,26.6955,-81.8138,2.16,6.0,1111122 
SCCF RECON,ioos:station:SCCF:18:1,2015-12-18T00:00:00Z,26.6955,-81.8138,2.2,6.28,1111122 
SCCF RECON,ioos:station:SCCF:18:1,2015-12-18T01:00:00Z,26.6955,-81.8138,2.247,6.51,1111122 
SCCF RECON,ioos:station:SCCF:18:1,2015-12-18T02:00:00Z,26.6955,-81.8138,2.29,6.44,1111122 
SCCF RECON,ioos:station:SCCF:18:1,2015-12-18T03:00:00Z,26.6955,-81.8138,2.3,6.45,1111122 
SCCF RECON,ioos:station:SCCF:18:1,2015-12-18T04:00:00Z,26.6955,-81.8138,2.25,6.3,1111122 
SCCF RECON,ioos:station:SCCF:18:1,2015-12-18T05:00:00Z,26.6955,-81.8138,2.19,6.05,1111122 
SCCF RECON,ioos:station:SCCF:18:1,2015-12-18T06:00:00Z,26.6955,-81.8138,2.122,6.16,1111122 
SCCF RECON,ioos:station:SCCF:18:1,2015-12-18T07:00:00Z,26.6955,-81.8138,2.07,6.01,1111122 
SCCF RECON,ioos:station:SCCF:18:1,2015-12-18T08:00:00Z,26.6955,-81.8138,2.04,5.88,1111122 
SCCF RECON,ioos:station:SCCF:18:1,2015-12-18T09:00:00Z,26.6955,-81.8138,2.03,5.7,1111122 
SCCF RECON,ioos:station:SCCF:18:1,2015-12-18T10:00:00Z,26.6955,-81.8138,2.1,5.31,1111122 
SCCF RECON,ioos:station:SCCF:18:1,2015-12-18T11:00:00Z,26.6955,-81.8138,2.18,5.73,1111122 
SCCF RECON,ioos:station:SCCF:18:1,2015-12-18T12:00:00Z,26.6955,-81.8138,2.23,5.81,1111122 
SCCF RECON,ioos:station:SCCF:18:1,2015-12-18T13:00:00Z,26.6955,-81.8138,2.26,5.83,1111122 
SCCF RECON,ioos:station:SCCF:18:1,2015-12-18T14:00:00Z,26.6955,-81.8138,2.28,5.94,1111122 
SCCF RECON,ioos:station:SCCF:18:1,2015-12-18T15:00:00Z,26.6955,-81.8138,2.28,5.72,1111122 
SCCF RECON,ioos:station:SCCF:18:1,2015-12-18T16:00:00Z,26.6955,-81.8138,2.21,6.04,1111122 
SCCF RECON,ioos:station:SCCF:18:1,2015-12-18T17:00:00Z,26.6955,-81.8138,2.14,5.8,1111122 
SCCF RECON,ioos:station:SCCF:18:1,2015-12-18T18:00:00Z,26.6955,-81.8138,2.089,5.57,1111122 
SCCF RECON,ioos:station:SCCF:18:1,2015-12-18T19:00:00Z,26.6955,-81.8138,2.044,5.83,1111122 
SCCF RECON,ioos:station:SCCF:18:1,2015-12-18T20:00:00Z,26.6955,-81.8138,1.98,5.96,1111122 
SCCF RECON,ioos:station:SCCF:18:1,2015-12-18T21:00:00Z,26.6955,-81.8138,1.95,5.69,1111122 
SCCF RECON,ioos:station:SCCF:18:1,2015-12-18T22:00:00Z,26.6955,-81.8138,1.95,5.71,1111122 
SCCF RECON,ioos:station:SCCF:18:1,2015-12-18T23:00:00Z,26.6955,-81.8138,1.96,5.66,1111122 
SCCF RECON,ioos:station:SCCF:18:1,2015-12-19T00:00:00Z,26.6955,-81.8138,1.99,5.65,1111122 
SCCF RECON,ioos:station:SCCF:18:1,2015-12-19T01:00:00Z,26.6955,-81.8138,2.05,5.65,1111122 
SCCF RECON,ioos:station:SCCF:18:1,2015-12-19T02:00:00Z,26.6955,-81.8138,2.1,5.52,1111122 
SCCF RECON,ioos:station:SCCF:18:1,2015-12-19T03:00:00Z,26.6955,-81.8138,2.11,5.76,1111122 
SCCF RECON,ioos:station:SCCF:18:1,2015-12-19T04:00:00Z,26.6955,-81.8138,2.067,5.82,1111122 
SCCF RECON,ioos:station:SCCF:18:1,2015-12-19T05:00:00Z,26.6955,-81.8138,1.98,6.03,1111122 
SCCF RECON,ioos:station:SCCF:18:1,2015-12-19T06:00:00Z,26.6955,-81.8138,1.92,6.04,1111122 
SCCF RECON,ioos:station:SCCF:18:1,2015-12-19T07:00:00Z,26.6955,-81.8138,1.88,6.03,1111122 
SCCF RECON,ioos:station:SCCF:18:1,2015-12-19T08:00:00Z,26.6955,-81.8138,1.84,6.13,1111122 
SCCF RECON,ioos:station:SCCF:18:1,2015-12-19T09:00:00Z,26.6955,-81.8138,1.795,6.24,1111122 
SCCF RECON,ioos:station:SCCF:18:1,2015-12-19T10:00:00Z,26.6955,-81.8138,1.76,6.37,1111122 
SCCF RECON,ioos:station:SCCF:18:1,2015-12-19T11:00:00Z,26.6955,-81.8138,1.74,6.2,1111122 
SCCF RECON,ioos:station:SCCF:18:1,2015-12-19T12:00:00Z,26.6955,-81.8138,1.73,6.12,1111122 
SCCF RECON,ioos:station:SCCF:18:1,2015-12-19T13:00:00Z,26.6955,-81.8138,1.74,6.14,1111122 
SCCF RECON,ioos:station:SCCF:18:1,2015-12-19T14:00:00Z,26.6955,-81.8138,1.741,6.23,1111122 
SCCF RECON,ioos:station:SCCF:18:1,2015-12-19T15:00:00Z,26.6955,-81.8138,1.728,6.53,1111122 
SCCF RECON,ioos:station:SCCF:18:1,2015-12-19T16:00:00Z,26.6955,-81.8138,1.69,6.59,1111122 
SCCF RECON,ioos:station:SCCF:18:1,2015-12-19T17:00:00Z,26.6955,-81.8138,1.655,6.88,1111122 
SCCF RECON,ioos:station:SCCF:18:1,2015-12-19T18:00:00Z,26.6955,-81.8138,1.62,6.51,1111122 
SCCF RECON,ioos:station:SCCF:18:1,2015-12-19T19:00:00Z,26.6955,-81.8138,1.578,6.71,1111122 
SCCF RECON,ioos:station:SCCF:18:1,2015-12-19T20:00:00Z,26.6955,-81.8138,1.55,6.83,1111122 
SCCF RECON,ioos:station:SCCF:18:1,2015-12-19T21:00:00Z,26.6955,-81.8138,1.518,7.05,1111122 
SCCF RECON,ioos:station:SCCF:18:1,2015-12-19T22:00:00Z,26.6955,-81.8138,1.5,7.0,1111122 
SCCF RECON,ioos:station:SCCF:18:1,2015-12-19T23:00:00Z,26.6955,-81.8138,1.55,7.29,1111122 
SCCF RECON,ioos:station:SCCF:18:1,2015-12-20T00:00:00Z,26.6955,-81.8138,1.64,7.16,1111122 
SCCF RECON,ioos:station:SCCF:18:1,2015-12-20T01:00:00Z,26.6955,-81.8138,1.73,7.41,1111122 
SCCF RECON,ioos:station:SCCF:18:1,2015-12-20T02:00:00Z,26.6955,-81.8138,1.77,7.44,1111122 
SCCF RECON,ioos:station:SCCF:18:1,2015-12-20T03:00:00Z,26.6955,-81.8138,1.81,7.43,1111122 
SCCF RECON,ioos:station:SCCF:18:1,2015-12-20T04:00:00Z,26.6955,-81.8138,1.86,7.48,1111122 
SCCF RECON,ioos:station:SCCF:18:1,2015-12-20T05:00:00Z,26.6955,-81.8138,1.869,7.59,1111122 
SCCF RECON,ioos:station:SCCF:18:1,2015-12-20T06:00:00Z,26.6955,-81.8138,1.83,7.54,1111122 
SCCF RECON,ioos:station:SCCF:18:1,2015-12-20T07:00:00Z,26.6955,-81.8138,1.788,7.17,1111122 
SCCF RECON,ioos:station:SCCF:18:1,2015-12-20T08:00:00Z,26.6955,-81.8138,1.75,7.12,1111122 
SCCF RECON,ioos:station:SCCF:18:1,2015-12-20T09:00:00Z,26.6955,-81.8138,1.71,7.13,1111122 
SCCF RECON,ioos:station:SCCF:18:1,2015-12-20T10:00:00Z,26.6955,-81.8138,1.68,7.15,1111122 
SCCF RECON,ioos:station:SCCF:18:1,2015-12-20T11:00:00Z,26.6955,-81.8138,1.66,7.1,1111122 
SCCF RECON,ioos:station:SCCF:18:1,2015-12-20T12:00:00Z,26.6955,-81.8138,1.661,7.05,1111122 
SCCF RECON,ioos:station:SCCF:18:1,2015-12-20T13:00:00Z,26.6955,-81.8138,1.71,7.03,1111122 
SCCF RECON,ioos:station:SCCF:18:1,2015-12-20T14:00:00Z,26.6955,-81.8138,1.77,6.98,1111122 
SCCF RECON,ioos:station:SCCF:18:1,2015-12-20T15:00:00Z,26.6955,-81.8138,1.83,7.11,1111122 
SCCF RECON,ioos:station:SCCF:18:1,2015-12-20T16:00:00Z,26.6955,-81.8138,1.86,7.08,1111122 
SCCF RECON,ioos:station:SCCF:18:1,2015-12-20T17:00:00Z,26.6955,-81.8138,1.869,7.21,1111122 
SCCF RECON,ioos:station:SCCF:18:1,2015-12-20T18:00:00Z,26.6955,-81.8138,1.863,7.35,1111122 
SCCF RECON,ioos:station:SCCF:18:1,2015-12-20T19:00:00Z,26.6955,-81.8138,1.85,7.45,1111122 
SCCF RECON,ioos:station:SCCF:18:1,2015-12-20T20:00:00Z,26.6955,-81.8138,1.81,7.43,1111122 
SCCF RECON,ioos:station:SCCF:18:1,2015-12-20T21:00:00Z,26.6955,-81.8138,1.786,7.38,1111122 
SCCF RECON,ioos:station:SCCF:18:1,2015-12-20T22:00:00Z,26.6955,-81.8138,1.79,7.31,1111122 
SCCF RECON,ioos:station:SCCF:18:1,2015-12-20T23:00:00Z,26.6955,-81.8138,1.833,7.27,1111122 
SCCF RECON,ioos:station:SCCF:18:1,2015-12-21T00:00:00Z,26.6955,-81.8138,1.912,7.39,1111122 
SCCF RECON,ioos:station:SCCF:18:1,2015-12-21T01:00:00Z,26.6955,-81.8138,1.98,7.68,1111122 
SCCF RECON,ioos:station:SCCF:18:1,2015-12-21T02:00:00Z,26.6955,-81.8138,2.04,7.59,1111122 
SCCF RECON,ioos:station:SCCF:18:1,2015-12-21T03:00:00Z,26.6955,-81.8138,2.09,7.63,1111122 
SCCF RECON,ioos:station:SCCF:18:1,2015-12-21T04:00:00Z,26.6955,-81.8138,2.135,7.67,1111122 
SCCF RECON,ioos:station:SCCF:18:1,2015-12-21T05:00:00Z,26.6955,-81.8138,2.13,7.66,1111122 
SCCF RECON,ioos:station:SCCF:18:1,2015-12-21T06:00:00Z,26.6955,-81.8138,2.09,7.54,1111122 
SCCF RECON,ioos:station:SCCF:18:1,2015-12-21T07:00:00Z,26.6955,-81.8138,2.03,7.29,1111122 
SCCF RECON,ioos:station:SCCF:18:1,2015-12-21T08:00:00Z,26.6955,-81.8138,1.97,7.32,1111122 
SCCF RECON,ioos:station:SCCF:18:1,2015-12-21T09:00:00Z,26.6955,-81.8138,1.92,7.32,1111122 
SCCF RECON,ioos:station:SCCF:18:1,2015-12-21T10:00:00Z,26.6955,-81.8138,1.88,7.23,1111122 
SCCF RECON,ioos:station:SCCF:18:1,2015-12-21T11:00:00Z,26.6955,-81.8138,1.84,7.39,1111122 
SCCF RECON,ioos:station:SCCF:18:1,2015-12-21T12:00:00Z,26.6955,-81.8138,1.819,7.31,1111122 
SCCF RECON,ioos:station:SCCF:18:1,2015-12-21T13:00:00Z,26.6955,-81.8138,1.83,7.21,1111122 
SCCF RECON,ioos:station:SCCF:18:1,2015-12-21T14:00:00Z,26.6955,-81.8138,1.909,7.17,1111122 
SCCF RECON,ioos:station:SCCF:18:1,2015-12-21T15:00:00Z,26.6955,-81.8138,1.978,7.17,1111122 
SCCF RECON,ioos:station:SCCF:18:1,2015-12-21T16:00:00Z,26.6955,-81.8138,2.02,7.32,1111122 
SCCF RECON,ioos:station:SCCF:18:1,2015-12-21T17:00:00Z,26.6955,-81.8138,2.051,7.45,1111122 
SCCF RECON,ioos:station:SCCF:18:1,2015-12-21T18:00:00Z,26.6955,-81.8138,2.09,7.51,1111122 
SCCF RECON,ioos:station:SCCF:18:1,2015-12-21T19:00:00Z,26.6955,-81.8138,2.116,7.64,1111122 
SCCF RECON,ioos:station:SCCF:18:1,2015-12-21T20:00:00Z,26.6955,-81.8138,2.101,7.62,1111122 
SCCF RECON,ioos:station:SCCF:18:1,2015-12-21T21:00:00Z,26.6955,-81.8138,2.06,7.63,1111122 
SCCF RECON,ioos:station:SCCF:18:1,2015-12-21T22:00:00Z,26.6955,-81.8138,2.04,7.5,1111122 
SCCF RECON,ioos:station:SCCF:18:1,2015-12-21T23:00:00Z,26.6955,-81.8138,2.04,7.42,1111122 
SCCF RECON,ioos:station:SCCF:18:1,2015-12-22T00:00:00Z,26.6955,-81.8138,2.08,7.46,1111122 
SCCF RECON,ioos:station:SCCF:18:1,2015-12-22T01:00:00Z,26.6955,-81.8138,2.178,7.66,1111122 
SCCF RECON,ioos:station:SCCF:18:1,2015-12-22T02:00:00Z,26.6955,-81.8138,2.26,7.57,1111122 
SCCF RECON,ioos:station:SCCF:18:1,2015-12-22T03:00:00Z,26.6955,-81.8138,2.32,7.71,1111122 
SCCF RECON,ioos:station:SCCF:18:1,2015-12-22T04:00:00Z,26.6955,-81.8138,2.358,7.9,1111122 
SCCF RECON,ioos:station:SCCF:18:1,2015-12-22T05:00:00Z,26.6955,-81.8138,2.39,8.01,1111122 
SCCF RECON,ioos:station:SCCF:18:1,2015-12-22T06:00:00Z,26.6955,-81.8138,2.4,7.85,1111122 
SCCF RECON,ioos:station:SCCF:18:1,2015-12-22T07:00:00Z,26.6955,-81.8138,2.33,7.63,1111122 
SCCF RECON,ioos:station:SCCF:18:1,2015-12-22T08:00:00Z,26.6955,-81.8138,2.23,7.34,1111122 
SCCF RECON,ioos:station:SCCF:18:1,2015-12-22T09:00:00Z,26.6955,-81.8138,2.15,7.4,1111122 
SCCF RECON,ioos:station:SCCF:18:1,2015-12-22T10:00:00Z,26.6955,-81.8138,2.091,7.3,1111122 
SCCF RECON,ioos:station:SCCF:18:1,2015-12-22T11:00:00Z,26.6955,-81.8138,2.021,7.17,1111122 
SCCF RECON,ioos:station:SCCF:18:1,2015-12-22T12:00:00Z,26.6955,-81.8138,1.96,7.08,1111122 
SCCF RECON,ioos:station:SCCF:18:1,2015-12-22T13:00:00Z,26.6955,-81.8138,1.92,6.98,1111122 
SCCF RECON,ioos:station:SCCF:18:1,2015-12-22T14:00:00Z,26.6955,-81.8138,1.915,7.12,1111122 
SCCF RECON,ioos:station:SCCF:18:1,2015-12-22T15:00:00Z,26.6955,-81.8138,1.99,7.06,1111122 
SCCF RECON,ioos:station:SCCF:18:1,2015-12-22T16:00:00Z,26.6955,-81.8138,2.07,7.19,1111122 
SCCF RECON,ioos:station:SCCF:18:1,2015-12-22T17:00:00Z,26.6955,-81.8138,2.139,7.16,1111122 
SCCF RECON,ioos:station:SCCF:18:1,2015-12-22T18:00:00Z,26.6955,-81.8138,2.177,7.22,1111122 
SCCF RECON,ioos:station:SCCF:18:1,2015-12-22T19:00:00Z,26.6955,-81.8138,2.22,7.3,1111122 
SCCF RECON,ioos:station:SCCF:18:1,2015-12-22T20:00:00Z,26.6955,-81.8138,2.228,7.56,1111122 
SCCF RECON,ioos:station:SCCF:18:1,2015-12-22T21:00:00Z,26.6955,-81.8138,2.206,7.29,1111122 
SCCF RECON,ioos:station:SCCF:18:1,2015-12-22T22:00:00Z,26.6955,-81.8138,2.16,7.42,1111122 
SCCF RECON,ioos:station:SCCF:18:1,2015-12-22T23:00:00Z,26.6955,-81.8138,2.13,7.42,1111122 
SCCF RECON,ioos:station:SCCF:18:1,2015-12-23T00:00:00Z,26.6955,-81.8138,2.113,7.12,1111122 
SCCF RECON,ioos:station:SCCF:18:1,2015-12-23T01:00:00Z,26.6955,-81.8138,2.13,7.08,1111122 
SCCF RECON,ioos:station:SCCF:18:1,2015-12-23T02:00:00Z,26.6955,-81.8138,2.212,7.34,1111122 
SCCF RECON,ioos:station:SCCF:18:1,2015-12-23T03:00:00Z,26.6955,-81.8138,2.3,7.3,1111122 
SCCF RECON,ioos:station:SCCF:18:1,2015-12-23T04:00:00Z,26.6955,-81.8138,2.35,7.32,1111122 
SCCF RECON,ioos:station:SCCF:18:1,2015-12-23T05:00:00Z,26.6955,-81.8138,2.389,7.51,1111122 
SCCF RECON,ioos:station:SCCF:18:1,2015-12-23T06:00:00Z,26.6955,-81.8138,2.43,7.56,1111122 
SCCF RECON,ioos:station:SCCF:18:1,2015-12-23T07:00:00Z,26.6955,-81.8138,2.45,7.54,1111122 
SCCF RECON,ioos:station:SCCF:18:1,2015-12-23T08:00:00Z,26.6955,-81.8138,2.366,7.23,1111122 
SCCF RECON,ioos:station:SCCF:18:1,2015-12-23T09:00:00Z,26.6955,-81.8138,2.27,6.99,1111122 
SCCF RECON,ioos:station:SCCF:18:1,2015-12-23T10:00:00Z,26.6955,-81.8138,2.2,7.07,1111122 
SCCF RECON,ioos:station:SCCF:18:1,2015-12-23T11:00:00Z,26.6955,-81.8138,2.14,6.91,1111122 
SCCF RECON,ioos:station:SCCF:18:1,2015-12-23T12:00:00Z,26.6955,-81.8138,2.08,6.92,1111122 
SCCF RECON,ioos:station:SCCF:18:1,2015-12-23T13:00:00Z,26.6955,-81.8138,2.01,6.51,1111122 
SCCF RECON,ioos:station:SCCF:18:1,2015-12-23T14:00:00Z,26.6955,-81.8138,1.96,6.66,1111122 
SCCF RECON,ioos:station:SCCF:18:1,2015-12-23T15:00:00Z,26.6955,-81.8138,1.95,6.66,1111122 
SCCF RECON,ioos:station:SCCF:18:1,2015-12-23T16:00:00Z,26.6955,-81.8138,2.01,6.74,1111122 
SCCF RECON,ioos:station:SCCF:18:1,2015-12-23T17:00:00Z,26.6955,-81.8138,2.08,6.73,1111122 
SCCF RECON,ioos:station:SCCF:18:1,2015-12-23T18:00:00Z,26.6955,-81.8138,2.14,6.87,1111122 
SCCF RECON,ioos:station:SCCF:18:1,2015-12-23T19:00:00Z,26.6955,-81.8138,2.19,6.98,1111122 
SCCF RECON,ioos:station:SCCF:18:1,2015-12-23T20:00:00Z,26.6955,-81.8138,2.23,7.19,1111122 
SCCF RECON,ioos:station:SCCF:18:1,2015-12-23T21:00:00Z,26.6955,-81.8138,2.24,7.1,1111122 
SCCF RECON,ioos:station:SCCF:18:1,2015-12-23T22:00:00Z,26.6955,-81.8138,2.22,6.99,1111122 
SCCF RECON,ioos:station:SCCF:18:1,2015-12-23T23:00:00Z,26.6955,-81.8138,2.162,7.16,1111122 
SCCF RECON,ioos:station:SCCF:18:1,2015-12-24T00:00:00Z,26.6955,-81.8138,2.11,7.02,1111122 
SCCF RECON,ioos:station:SCCF:18:1,2015-12-24T01:00:00Z,26.6955,-81.8138,2.081,7.01,1111122 
SCCF RECON,ioos:station:SCCF:18:1,2015-12-24T02:00:00Z,26.6955,-81.8138,2.12,6.85,1111122 
SCCF RECON,ioos:station:SCCF:18:1,2015-12-24T03:00:00Z,26.6955,-81.8138,2.21,6.96,1111122 
SCCF RECON,ioos:station:SCCF:18:1,2015-12-24T04:00:00Z,26.6955,-81.8138,2.3,6.9,1111122 
SCCF RECON,ioos:station:SCCF:18:1,2015-12-24T05:00:00Z,26.6955,-81.8138,2.34,6.9,1111122 
SCCF RECON,ioos:station:SCCF:18:1,2015-12-24T06:00:00Z,26.6955,-81.8138,2.38,7.28,1111122 
SCCF RECON,ioos:station:SCCF:18:1,2015-12-24T07:00:00Z,26.6955,-81.8138,2.43,7.29,1111122 
SCCF RECON,ioos:station:SCCF:18:1,2015-12-24T08:00:00Z,26.6955,-81.8138,2.42,7.09,1111122 
SCCF RECON,ioos:station:SCCF:18:1,2015-12-24T09:00:00Z,26.6955,-81.8138,2.33,6.85,1111122 
SCCF RECON,ioos:station:SCCF:18:1,2015-12-24T10:00:00Z,26.6955,-81.8138,2.235,6.79,1111122 
SCCF RECON,ioos:station:SCCF:18:1,2015-12-24T11:00:00Z,26.6955,-81.8138,2.17,6.81,1111122 
SCCF RECON,ioos:station:SCCF:18:1,2015-12-24T12:00:00Z,26.6955,-81.8138,2.12,6.58,1111122 
SCCF RECON,ioos:station:SCCF:18:1,2015-12-24T13:00:00Z,26.6955,-81.8138,2.06,6.71,1111122 
SCCF RECON,ioos:station:SCCF:18:1,2015-12-24T14:00:00Z,26.6955,-81.8138,1.99,6.34,1111122 
SCCF RECON,ioos:station:SCCF:18:1,2015-12-24T15:00:00Z,26.6955,-81.8138,1.95,6.44,1111122 
SCCF RECON,ioos:station:SCCF:18:1,2015-12-24T16:00:00Z,26.6955,-81.8138,1.93,6.61,1111122 
SCCF RECON,ioos:station:SCCF:18:1,2015-12-24T17:00:00Z,26.6955,-81.8138,1.965,5.96,1111122 
SCCF RECON,ioos:station:SCCF:18:1,2015-12-24T18:00:00Z,26.6955,-81.8138,2.039,6.74,1111122 
SCCF RECON,ioos:station:SCCF:18:1,2015-12-24T19:00:00Z,26.6955,-81.8138,2.11,6.77,1111122 
SCCF RECON,ioos:station:SCCF:18:1,2015-12-24T20:00:00Z,26.6955,-81.8138,2.16,6.87,1111122 
SCCF RECON,ioos:station:SCCF:18:1,2015-12-24T21:00:00Z,26.6955,-81.8138,2.19,7.05,1111122 
SCCF RECON,ioos:station:SCCF:18:1,2015-12-24T22:00:00Z,26.6955,-81.8138,2.19,7.05,1111122 
SCCF RECON,ioos:station:SCCF:18:1,2015-12-24T23:00:00Z,26.6955,-81.8138,2.161,7.02,1111122 
SCCF RECON,ioos:station:SCCF:18:1,2015-12-25T00:00:00Z,26.6955,-81.8138,2.11,6.85,1111122 
SCCF RECON,ioos:station:SCCF:18:1,2015-12-25T01:00:00Z,26.6955,-81.8138,2.067,6.87,1111122 
SCCF RECON,ioos:station:SCCF:18:1,2015-12-25T02:00:00Z,26.6955,-81.8138,2.045,6.83,1111122 
SCCF RECON,ioos:station:SCCF:18:1,2015-12-25T03:00:00Z,26.6955,-81.8138,2.1,6.77,1111122 
SCCF RECON,ioos:station:SCCF:18:1,2015-12-25T04:00:00Z,26.6955,-81.8138,2.19,6.78,1111122 
SCCF RECON,ioos:station:SCCF:18:1,2015-12-25T05:00:00Z,26.6955,-81.8138,2.27,6.87,1111122 
SCCF RECON,ioos:station:SCCF:18:1,2015-12-25T06:00:00Z,26.6955,-81.8138,2.32,6.84,1111122 
SCCF RECON,ioos:station:SCCF:18:1,2015-12-25T07:00:00Z,26.6955,-81.8138,2.36,7.0,1111122 
SCCF RECON,ioos:station:SCCF:18:1,2015-12-25T08:00:00Z,26.6955,-81.8138,2.38,7.06,1111122 
SCCF RECON,ioos:station:SCCF:18:1,2015-12-25T09:00:00Z,26.6955,-81.8138,2.33,6.75,1111122 
SCCF RECON,ioos:station:SCCF:18:1,2015-12-25T10:00:00Z,26.6955,-81.8138,2.23,6.72,1111122 
SCCF RECON,ioos:station:SCCF:18:1,2015-12-25T11:00:00Z,26.6955,-81.8138,2.15,6.7,1111122 
SCCF RECON,ioos:station:SCCF:18:1,2015-12-25T12:00:00Z,26.6955,-81.8138,2.1,6.71,1111122 
SCCF RECON,ioos:station:SCCF:18:1,2015-12-25T13:00:00Z,26.6955,-81.8138,2.05,6.6,1111122 
SCCF RECON,ioos:station:SCCF:18:1,2015-12-25T14:00:00Z,26.6955,-81.8138,1.99,6.61,1111122 
SCCF RECON,ioos:station:SCCF:18:1,2015-12-25T15:00:00Z,26.6955,-81.8138,1.93,6.24,1111122 
SCCF RECON,ioos:station:SCCF:18:1,2015-12-25T16:00:00Z,26.6955,-81.8138,1.88,6.48,1111122 
SCCF RECON,ioos:station:SCCF:18:1,2015-12-25T17:00:00Z,26.6955,-81.8138,1.87,6.76,1111122 
SCCF RECON,ioos:station:SCCF:18:1,2015-12-25T18:00:00Z,26.6955,-81.8138,1.917,6.93,1111122 
SCCF RECON,ioos:station:SCCF:18:1,2015-12-25T19:00:00Z,26.6955,-81.8138,2.001,7.22,1111122 
SCCF RECON,ioos:station:SCCF:18:1,2015-12-25T20:00:00Z,26.6955,-81.8138,2.061,7.39,1111122 
SCCF RECON,ioos:station:SCCF:18:1,2015-12-25T21:00:00Z,26.6955,-81.8138,2.091,7.29,1111122 
SCCF RECON,ioos:station:SCCF:18:1,2015-12-25T22:00:00Z,26.6955,-81.8138,2.12,7.16,1111122 
SCCF RECON,ioos:station:SCCF:18:1,2015-12-25T23:00:00Z,26.6955,-81.8138,2.13,7.26,1111122 
SCCF RECON,ioos:station:SCCF:18:1,2015-12-26T00:00:00Z,26.6955,-81.8138,2.1,7.16,1111122 
SCCF RECON,ioos:station:SCCF:18:1,2015-12-26T01:00:00Z,26.6955,-81.8138,2.05,7.15,1111122 
SCCF RECON,ioos:station:SCCF:18:1,2015-12-26T02:00:00Z,26.6955,-81.8138,2.01,7.17,1111122 
SCCF RECON,ioos:station:SCCF:18:1,2015-12-26T03:00:00Z,26.6955,-81.8138,2.0,7.08,1111122 
SCCF RECON,ioos:station:SCCF:18:1,2015-12-26T04:00:00Z,26.6955,-81.8138,2.075,7.02,1111122 
SCCF RECON,ioos:station:SCCF:18:1,2015-12-26T05:00:00Z,26.6955,-81.8138,2.17,6.82,1111122 
SCCF RECON,ioos:station:SCCF:18:1,2015-12-26T06:00:00Z,26.6955,-81.8138,2.25,6.95,1111122 
SCCF RECON,ioos:station:SCCF:18:1,2015-12-26T07:00:00Z,26.6955,-81.8138,2.3,6.88,1111122 
SCCF RECON,ioos:station:SCCF:18:1,2015-12-26T08:00:00Z,26.6955,-81.8138,2.34,6.95,1111122 
SCCF RECON,ioos:station:SCCF:18:1,2015-12-26T09:00:00Z,26.6955,-81.8138,2.35,6.94,1111122 
SCCF RECON,ioos:station:SCCF:18:1,2015-12-26T10:00:00Z,26.6955,-81.8138,2.29,6.87,1111122 
SCCF RECON,ioos:station:SCCF:18:1,2015-12-26T11:00:00Z,26.6955,-81.8138,2.2,6.88,1111122 
SCCF RECON,ioos:station:SCCF:18:1,2015-12-26T12:00:00Z,26.6955,-81.8138,2.13,6.86,1111122 
SCCF RECON,ioos:station:SCCF:18:1,2015-12-26T13:00:00Z,26.6955,-81.8138,2.08,6.71,1111122 
SCCF RECON,ioos:station:SCCF:18:1,2015-12-26T14:00:00Z,26.6955,-81.8138,2.02,6.87,1111122 
SCCF RECON,ioos:station:SCCF:18:1,2015-12-26T15:00:00Z,26.6955,-81.8138,1.961,6.83,1111122 
SCCF RECON,ioos:station:SCCF:18:1,2015-12-26T16:00:00Z,26.6955,-81.8138,1.9,6.82,1111122 
SCCF RECON,ioos:station:SCCF:18:1,2015-12-26T17:00:00Z,26.6955,-81.8138,1.87,6.87,1111122 
SCCF RECON,ioos:station:SCCF:18:1,2015-12-26T18:00:00Z,26.6955,-81.8138,1.9,6.77,1111122 
SCCF RECON,ioos:station:SCCF:18:1,2015-12-26T19:00:00Z,26.6955,-81.8138,1.983,7.04,1111122 
SCCF RECON,ioos:station:SCCF:18:1,2015-12-26T20:00:00Z,26.6955,-81.8138,2.06,7.0,1111122 
SCCF RECON,ioos:station:SCCF:18:1,2015-12-26T21:00:00Z,26.6955,-81.8138,2.102,7.1,1111122 
SCCF RECON,ioos:station:SCCF:18:1,2015-12-26T22:00:00Z,26.6955,-81.8138,2.16,7.25,1111122 
SCCF RECON,ioos:station:SCCF:18:1,2015-12-26T23:00:00Z,26.6955,-81.8138,2.2,7.13,1111122 
SCCF RECON,ioos:station:SCCF:18:1,2015-12-27T00:00:00Z,26.6955,-81.8138,2.181,7.22,1111122 
SCCF RECON,ioos:station:SCCF:18:1,2015-12-27T01:00:00Z,26.6955,-81.8138,2.12,7.17,1111122 
SCCF RECON,ioos:station:SCCF:18:1,2015-12-27T02:00:00Z,26.6955,-81.8138,2.07,6.93,1111122 
SCCF RECON,ioos:station:SCCF:18:1,2015-12-27T03:00:00Z,26.6955,-81.8138,2.034,6.94,1111122 
SCCF RECON,ioos:station:SCCF:18:1,2015-12-27T04:00:00Z,26.6955,-81.8138,2.02,7.1,1111122 
SCCF RECON,ioos:station:SCCF:18:1,2015-12-27T05:00:00Z,26.6955,-81.8138,2.06,6.91,1111122 
SCCF RECON,ioos:station:SCCF:18:1,2015-12-27T06:00:00Z,26.6955,-81.8138,2.16,6.85,1111122 
SCCF RECON,ioos:station:SCCF:18:1,2015-12-27T07:00:00Z,26.6955,-81.8138,2.24,6.74,1111122 
SCCF RECON,ioos:station:SCCF:18:1,2015-12-27T08:00:00Z,26.6955,-81.8138,2.28,6.82,1111122 
SCCF RECON,ioos:station:SCCF:18:1,2015-12-27T09:00:00Z,26.6955,-81.8138,2.29,6.78,1111122 
SCCF RECON,ioos:station:SCCF:18:1,2015-12-27T10:00:00Z,26.6955,-81.8138,2.254,6.9,1111122 
SCCF RECON,ioos:station:SCCF:18:1,2015-12-27T11:00:00Z,26.6955,-81.8138,2.18,6.86,1111122 
SCCF RECON,ioos:station:SCCF:18:1,2015-12-27T12:00:00Z,26.6955,-81.8138,2.11,6.68,1111122 
SCCF RECON,ioos:station:SCCF:18:1,2015-12-27T13:00:00Z,26.6955,-81.8138,2.05,6.8,1111122 
SCCF RECON,ioos:station:SCCF:18:1,2015-12-27T14:00:00Z,26.6955,-81.8138,2.0,6.86,1111122 
SCCF RECON,ioos:station:SCCF:18:1,2015-12-27T15:00:00Z,26.6955,-81.8138,1.95,6.88,1111122 
SCCF RECON,ioos:station:SCCF:18:1,2015-12-27T16:00:00Z,26.6955,-81.8138,1.884,6.93,1111122 
SCCF RECON,ioos:station:SCCF:18:1,2015-12-27T17:00:00Z,26.6955,-81.8138,1.835,7.1,1111122 
SCCF RECON,ioos:station:SCCF:18:1,2015-12-27T18:00:00Z,26.6955,-81.8138,1.82,7.26,1111122 
SCCF RECON,ioos:station:SCCF:18:1,2015-12-27T19:00:00Z,26.6955,-81.8138,1.89,7.06,1111122 
SCCF RECON,ioos:station:SCCF:18:1,2015-12-27T20:00:00Z,26.6955,-81.8138,1.972,7.23,1111122 
SCCF RECON,ioos:station:SCCF:18:1,2015-12-27T21:00:00Z,26.6955,-81.8138,2.03,7.31,1111122 
SCCF RECON,ioos:station:SCCF:18:1,2015-12-27T22:00:00Z,26.6955,-81.8138,2.08,7.31,1111122 
SCCF RECON,ioos:station:SCCF:18:1,2015-12-27T23:00:00Z,26.6955,-81.8138,2.14,7.41,1111122 
SCCF RECON,ioos:station:SCCF:18:1,2015-12-28T00:00:00Z,26.6955,-81.8138,2.16,7.26,1111122 
SCCF RECON,ioos:station:SCCF:18:1,2015-12-28T01:00:00Z,26.6955,-81.8138,2.14,7.5,1111122 
SCCF RECON,ioos:station:SCCF:18:1,2015-12-28T02:00:00Z,26.6955,-81.8138,2.091,7.16,1111122 
SCCF RECON,ioos:station:SCCF:18:1,2015-12-28T03:00:00Z,26.6955,-81.8138,2.04,7.05,1111122 
SCCF RECON,ioos:station:SCCF:18:1,2015-12-28T04:00:00Z,26.6955,-81.8138,2.002,6.99,1111122 
SCCF RECON,ioos:station:SCCF:18:1,2015-12-28T05:00:00Z,26.6955,-81.8138,2.01,7.08,1111122 
SCCF RECON,ioos:station:SCCF:18:1,2015-12-28T06:00:00Z,26.6955,-81.8138,2.1,6.92,1111122 
SCCF RECON,ioos:station:SCCF:18:1,2015-12-28T07:00:00Z,26.6955,-81.8138,2.188,6.81,1111122 
SCCF RECON,ioos:station:SCCF:18:1,2015-12-28T08:00:00Z,26.6955,-81.8138,2.24,6.93,1111122 
SCCF RECON,ioos:station:SCCF:18:1,2015-12-28T09:00:00Z,26.6955,-81.8138,2.27,6.93,1111122 
SCCF RECON,ioos:station:SCCF:18:1,2015-12-28T10:00:00Z,26.6955,-81.8138,2.305,6.84,1111122 
SCCF RECON,ioos:station:SCCF:18:1,2015-12-28T11:00:00Z,26.6955,-81.8138,2.3,6.95,1111122 
SCCF RECON,ioos:station:SCCF:18:1,2015-12-28T12:00:00Z,26.6955,-81.8138,2.23,6.85,1111122 
SCCF RECON,ioos:station:SCCF:18:1,2015-12-28T13:00:00Z,26.6955,-81.8138,2.14,6.79,1111122 
SCCF RECON,ioos:station:SCCF:18:1,2015-12-28T14:00:00Z,26.6955,-81.8138,2.089,6.86,1111122 
SCCF RECON,ioos:station:SCCF:18:1,2015-12-28T15:00:00Z,26.6955,-81.8138,2.034,6.92,1111122 
SCCF RECON,ioos:station:SCCF:18:1,2015-12-28T16:00:00Z,26.6955,-81.8138,1.98,7.03,1111122 
SCCF RECON,ioos:station:SCCF:18:1,2015-12-28T17:00:00Z,26.6955,-81.8138,1.923,6.99,1111122 
SCCF RECON,ioos:station:SCCF:18:1,2015-12-28T18:00:00Z,26.6955,-81.8138,1.884,7.07,1111122 